Showing default

LEMUR 2 KREMPEL-BRO1, 63357

Orbit data source: Space-Track

LEMUR 2 KREMPEL-BRO1, 63357 is a payload satellite owned by OroraTech (US) in SSO that was launched on Wed, 26 Mar 2025 UTC via an ELECTRON launch vehicle from the Rocket Lab Launch Complex (RLLC). Payload-class satellites include a variety of spacecraft equipped with specific instruments for various scientific and technological missions. These include communications satellites like Starlink; space stations such as the ISS; scientific satellites like the Hubble; Earth observation satellites from companies like Planet Labs, Umbra, and HawkEye 360; GPS; miniature CubeSats for education and research; and military/defense satellites.

Loading next visibility...
Identifier
63357, 2025-061G
Orbit
SSO
Last TLE update
17 hours ago
Origin
Manufacturer
Spire/Glasgow
Mission
Operational Commercial Imaging
Bus & Motor
CUBESAT 6U, Unknown motor
Mass
~15 kg wet, ~15 kg dry
Launch date (UTC)
2025-03-26 (3 months ago)
Launch vehicle
ELECTRON
Launch site
Rocket Lab Launch Complex (RLLC)
Object type
Payload
Rocket body
Debris
Shape & HBR
Box + 2 Pan, 0.4 m
Radar Cross Section
0.065 m², Medium (>0.1 m² and < 1m²)

Expand to show TLE details & history

TLE from 17 hours ago
0 LEMUR 2 KREMPEL-BRO1
1 63357U 25061G   25183.40223023  .00003213  00000-0  19701-3 0  9993
2 63357  97.5193 158.2978 0020635  18.8383 341.3606 15.10686709 14750
Epoch: 2025-07-02T09:39Z
TLE epoch observation values (Epoch: 2025-07-02T09:39:12.691Z)
Latitude
-0.00002°
Longitude
92.81108°
Altitude
523.664 km
Speed
7.609 km/s
True Right ascension
10h 33m 11s
True Declination
0° 00' 00"
Sunlit
Object was in daylight at epoch
Visualization orbit readout
Latitude
-48.18919°
Longitude
-94.93652°
Altitude
564.891 km
Speed
7.571 km/s
Apparent Right ascension
00h 14m 19s
Apparent Declination
-48° 45' 60"
Sunlit
Object is in full shadow
Visualization observer readout
Local Sidereal Time
14:18:34
Azimuth
122.241° SE
Elevation
-66.292°
Doppler factor
1
Orbital elements
Apogee altitude
545.345 km
Perigee altitude
516.83 km
Semi-major axis
6,909.225 km
Eccentricity
0.00206
Inclination
97.5193°
RAAN
158.2978°
Arg. of periapsis
18.8383°
True anomaly
Unknown
Mean anomaly
341.3606°
Eccentric anomaly
Unknown
Mean motion
3.77919 °/min
Orbital period
95.26 mins
BSTAR
0.00019701
Loading maneuver chart data...
Loading SW <> Apogee altitude chart data...
Loading historical data...
Loading historical data...
Loading historical data...
Loading historical data...
Loading historical data...
Loading historical data...
Loading historical data...

LEMUR 2 KREMPEL-BRO1 Visibility forecast

Observer location: undefined°, undefined°

Span
Click to sort rows by Start time (UTC) header in descending order
Start Az.
Max El. time (UTC)
Max El. Az.
Max El.
End time (UTC)
End Az.
6 mins2025-07-03 11:39:32.275Z348.224° N2025-07-03 11:41:32.275Z301.684° NW33.077°2025-07-03 11:45:32.275Z215.983° SW
5 mins2025-07-03 22:21:32.275Z163.978° S2025-07-03 22:23:32.275Z108.484° ESE44.849°2025-07-03 22:26:32.275Z349.451° N
|